Location: Colonia Mina de C?rbuni
(46.1667°N, 22.7167°E)
Time: 19:27:13
(UTC+00:00)

Altair - All Passes

Search period start: 19 April 2024 00:00
Search period end: 29 April 2024 00:00
Orbit: 1502 x 1682 km, 47.2° (Epoch: 18 April)

Date Brightness Start Highest point End Pass type
(mag) Time Alt. Az. Time Alt. Az. Time Alt. Az.
19 Apr - 00:36:36 10° WNW 00:44:54 35° SW 00:52:57 10° SSE visible
19 Apr - 15:54:16 10° S 16:02:24 29° SE 16:10:22 10° ENE daylight
19 Apr - 17:56:08 10° SW 18:06:05 69° SSE 18:15:43 10° ENE visible
19 Apr - 20:00:55 10° W 20:10:55 85° N 20:20:32 10° E visible
19 Apr - 22:06:07 10° WNW 22:15:55 80° SSW 22:25:17 10° ESE visible
20 Apr - 00:11:18 10° WNW 00:19:48 38° SW 00:28:04 10° SSE visible
20 Apr - 15:29:27 10° S 15:37:18 27° SE 15:45:00 10° E daylight
20 Apr - 17:30:57 10° SW 17:40:52 66° SSE 17:50:30 10° ENE daylight
20 Apr - 19:35:38 10° W 19:45:40 85° N 19:55:19 10° E visible
20 Apr - 21:40:51 10° WNW 21:50:42 83° SSW 22:00:07 10° ESE visible
20 Apr - 23:45:59 10° WNW 23:54:42 41° SW 00:03:08 10° SSE visible
21 Apr - 15:04:42 10° S 15:12:12 24° SE 15:19:36 10° E daylight
21 Apr - 17:05:47 10° SW 17:15:40 63° SSE 17:25:17 10° ENE daylight
21 Apr - 19:10:20 10° W 19:20:25 86° N 19:30:06 10° E visible
21 Apr - 21:15:35 10° WNW 21:25:29 85° SSW 21:34:57 10° ESE visible
21 Apr - 23:20:41 10° WNW 23:29:36 44° SW 23:38:11 10° SSE visible
22 Apr - 01:29:17 10° WSW 01:32:12 12° WSW 01:35:07 10° SW visible
22 Apr - 14:39:59 10° S 14:47:07 22° SE 14:54:09 10° E daylight
22 Apr - 16:40:38 10° SW 16:50:29 60° SSE 17:00:03 10° ENE daylight
22 Apr - 18:45:03 10° W 18:55:09 87° N 19:04:53 10° E visible
22 Apr - 20:50:19 10° WNW 21:00:15 87° SSW 21:09:46 10° ESE visible
22 Apr - 22:55:24 10° WNW 23:04:28 47° SW 23:13:14 10° SSE visible
23 Apr - 01:03:06 10° W 01:07:12 14° WSW 01:11:15 10° SSW visible
23 Apr - 14:15:21 10° S 14:22:02 20° SE 14:28:39 10° E daylight
23 Apr - 16:15:31 10° SW 16:25:17 56° SSE 16:34:50 10° ENE daylight
23 Apr - 18:19:46 10° WSW 18:29:53 88° NNW 18:39:40 10° E visible
23 Apr - 20:25:02 10° WNW 20:35:01 89° SSW 20:44:35 10° ESE visible
23 Apr - 22:30:07 10° WNW 22:39:21 50° SW 22:48:14 10° SE visible
24 Apr - 00:37:14 10° W 00:42:11 15° SW 00:47:03 10° SSW visible
24 Apr - 13:50:48 10° SSE 13:56:58 18° SE 14:03:05 10° E daylight
24 Apr - 15:50:25 10° SW 16:00:07 53° SE 16:09:36 10° ENE daylight
24 Apr - 17:54:30 10° WSW 18:04:38 90° N 18:14:27 10° E visible
24 Apr - 19:59:45 10° W 20:09:46 89° NNE 20:19:23 10° ESE visible
24 Apr - 22:04:50 10° WNW 22:14:12 53° SW 22:23:13 10° SE visible
25 Apr - 00:11:31 10° W 00:17:09 17° SW 00:22:41 10° SSW visible
25 Apr - 13:26:20 10° SSE 13:31:54 16° SE 13:37:25 10° E daylight
25 Apr - 15:25:20 10° SW 15:34:57 50° SE 15:44:22 10° ENE daylight
25 Apr - 17:29:13 10° WSW 17:39:22 88° S 17:49:13 10° ENE daylight
25 Apr - 19:34:28 10° W 19:44:31 88° N 19:54:10 10° E visible
25 Apr - 21:39:33 10° WNW 21:49:03 57° SSW 21:58:10 10° SE visible
25 Apr - 23:45:55 10° W 23:52:07 19° SW 23:58:12 10° SSW visible
26 Apr - 13:02:02 10° SSE 13:06:51 14° ESE 13:11:38 10° E daylight
26 Apr - 15:00:16 10° SSW 15:09:46 47° SE 15:19:07 10° ENE daylight
26 Apr - 17:03:57 10° WSW 17:14:08 87° SSE 17:24:00 10° ENE daylight
26 Apr - 19:09:11 10° W 19:19:16 87° N 19:28:57 10° E visible
26 Apr - 21:14:17 10° WNW 21:23:53 60° SSW 21:33:07 10° SE visible
26 Apr - 23:20:22 10° W 23:27:05 22° SW 23:33:38 10° S visible
27 Apr - 12:37:58 10° SE 12:41:48 13° ESE 12:45:37 10° E daylight
27 Apr - 14:35:14 10° SSW 14:44:37 44° SE 14:53:51 10° ENE daylight
27 Apr - 16:38:43 10° WSW 16:48:53 84° SSE 16:58:47 10° ENE daylight
27 Apr - 18:43:54 10° W 18:54:01 86° N 19:03:44 10° E visible
27 Apr - 20:49:01 10° WNW 20:58:43 63° SSW 21:08:02 10° SE visible
27 Apr - 22:54:53 10° W 23:02:02 24° SW 23:08:59 10° S visible
28 Apr - 12:14:22 10° SE 12:16:46 11° ESE 12:19:09 10° ESE daylight
28 Apr - 14:10:14 10° SSW 14:19:28 42° SE 14:28:34 10° ENE daylight
28 Apr - 16:13:28 10° WSW 16:23:38 82° SSE 16:33:34 10° ENE daylight
28 Apr - 18:18:37 10° W 18:28:45 85° N 18:38:32 10° E visible
28 Apr - 20:23:45 10° WNW 20:33:32 67° SSW 20:42:56 10° SE visible
28 Apr - 22:29:26 10° W 22:36:58 26° SW 22:44:17 10° S visible
